CW3816 Weather Reports


Display with metric or nautical units.
time (UTC)temp
F
wind
direction
speed
MPH
gust
MPH
rain 1hr
in
rain 24hr
in
rain mn
in
humidity
%
barometer
mb
20260504150353 73 127 0.0 0.0 0.00 0.00 0.00 29 1013.7
20260504140354 66 186 0.0 0.0 0.00 0.00 0.00 36 1013.7
20260504130347 56 232 0.0 0.0 0.00 0.00 0.00 53 1014.3
20260504110344 47 116 0.0 0.0 0.00 0.00 0.00 68 1014.7
20260504100356 49 116 0.0 0.0 0.00 0.00 0.00 65 1014.4
20260504081904 49 116 0.0 0.0 0.00 0.00 0.00 65 1014.9
20260504080344 49 116 0.0 0.0 0.00 0.00 0.00 61 1014.8
20260504070349 50 116 0.0 0.0 0.00 0.00 0.00 60 1014.8
20260504050354 46 116 0.0 0.0 0.00 0.00 0.00 73 1015.0
20260504044911 46 116 0.0 0.0 0.00 0.00 0.00 72 1014.8
20260504043350 46 116 0.0 0.0 0.00 0.00 0.00 72 1014.8
20260504041905 45 116 0.0 0.0 0.00 0.00 0.00 74 1014.6
20260504040348 45 116 0.0 0.0 0.00 0.00 0.00 73 1014.8
20260504034843 45 116 0.0 0.0 0.00 0.00 0.00 73 1014.8
20260504033343 44 116 0.0 0.0 0.00 0.00 0.00 73 1014.7
20260504031905 44 116 0.0 0.0 0.00 0.00 0.00 72 1014.7
20260504030344 45 116 0.0 0.0 0.00 0.00 0.00 71 1014.9
20260504024859 45 116 0.0 0.0 0.00 0.00 0.00 70 1014.7
20260504023342 46 116 0.0 0.0 0.00 0.00 0.00 70 1014.8
20260504021846 47 116 0.0 0.0 0.00 0.00 0.00 69 1014.7
20260504020352 47 116 0.0 0.0 0.00 0.00 0.00 68 1014.6
20260504014849 48 116 0.0 0.0 0.00 0.00 0.00 67 1014.4
20260504013357 49 116 0.0 0.0 0.00 0.00 0.00 64 1014.5
20260504011857 50 116 0.0 0.0 0.00 0.00 0.00 64 1014.3
20260504010341 51 116 0.0 0.0 0.00 0.00 0.00 60 1014.3
20260504004903 52 116 0.0 0.0 0.00 0.00 0.00 60 1014.2
20260504003344 54 116 0.0 0.0 0.00 0.00 0.00 57 1014.0
20260504001904 55 116 0.0 0.0 0.00 0.00 0.00 51 1013.9
20260504000343 58 116 0.0 0.0 0.00 0.00 0.00 46 1013.9
20260503234905 59 116 0.0 0.0 0.00 0.00 0.00 38 1013.7
20260503233347 60 116 0.0 0.0 0.00 0.00 0.00 32 1013.5
20260503231847 61 116 0.0 0.0 0.00 0.00 0.00 27 1013.5
20260503230354 62 116 0.0 0.0 0.00 0.00 0.00 26 1013.5
20260503224852 62 116 0.0 0.0 0.00 0.00 0.00 24 1013.5
20260503223355 63 113 0.0 0.0 0.00 0.00 0.00 25 1013.6
20260503221855 63 165 0.0 0.0 0.00 0.00 0.00 27 1013.7
20260503220358 63 165 0.0 0.0 0.00 0.00 0.00 27 1013.7
20260503214838 64 182 0.0 0.0 0.00 0.00 0.00 23 1013.8
20260503213345 65 188 0.0 0.0 0.00 0.00 0.00 24 1013.8
20260503211841 66 213 0.0 0.0 0.00 0.00 0.00 25 1013.8
20260503210341 67 128 0.0 0.0 0.00 0.00 0.00 22 1013.8
20260503204840 69 151 0.0 0.0 0.00 0.00 0.00 22 1013.9
20260503203344 69 323 0.0 0.0 0.00 0.00 0.00 23 1014.3
20260503201840 70 275 0.0 0.0 0.00 0.00 0.00 22 1014.4
20260503200339 70 272 0.0 0.0 0.00 0.00 0.00 22 1014.4
20260503194840 69 55 0.0 0.0 0.00 0.00 0.00 23 1014.8
20260503193339 69 227 0.0 0.0 0.00 0.00 0.00 21 1014.9
20260503191859 68 66 0.0 0.0 0.00 0.00 0.00 24 1015.3
20260503190345 70 75 0.0 0.0 0.00 0.00 0.00 21 1015.5
20260503184841 69 131 0.0 0.0 0.00 0.00 0.00 24 1015.7
20260503183347 69 275 0.0 0.0 0.00 0.00 0.00 23 1015.9
20260503181844 68 45 0.0 0.0 0.00 0.00 0.00 25 1015.9
20260503180348 67 64 0.0 0.0 0.00 0.00 0.00 23 1016.0
20260503174849 66 176 0.0 0.0 0.00 0.00 0.00 25 1016.1
20260503173352 65 188 0.0 0.0 0.00 0.00 0.00 28 1016.3
20260503171836 66 64 0.0 0.0 0.00 0.00 0.00 28 1016.4
20260503170343 65 234 0.0 0.0 0.00 0.00 0.00 25 1016.4